Poplar Bluff, MO

12:35 AM CST on January 23, 2018 (GMT -0600)
Poplar Bluff Municipal

Weather History for KPOF - July, 2013

Change the Weather History Date:

Tuesday, July 9, 2013

  Actual Average Record
Temperature  
Mean Temperature 84 °F -  
Max Temperature 95 °F 92 °F 106 °F (1980)
Min Temperature 73 °F 69 °F 54 °F (1927)
Cooling Degree Days 19    
Growing Degree Days 34 (Base 50)    
Moisture  
Dew Point 73 °F    
Average Humidity 67    
Maximum Humidity 91    
Minimum Humidity 49    
Precipitation  
Precipitation 0.00 in - - ()
Sea Level Pressure  
Sea Level Pressure 30.02 in    
Wind  
Wind Speed 4 mph (SSW)    
Max Wind Speed 13 mph    
Max Gust Speed 16 mph    
Visibility 10 miles    
Events      
Averages and records for this station are not official NWS values.
T = Trace of Precipitation, MM = Missing Value Source: NWS Daily Summary

Daily Weather History Graph

Daily Weather History Graph

Search for Another Location

Airport or City:

Trip Planner

Search our weather history database for the weather conditions in past years. The results will help you decide how hot, cold, wet, or windy it might be!

Date:

Astronomy

Jul. 09, 2013 Rise Set
Actual Time 5:50 AM CDT 8:22 PM CDT
Civil Twilight 5:20 AM CDT 8:52 PM CDT
Nautical Twilight 4:42 AM CDT 9:30 PM CDT
Astronomical Twilight 4:01 AM CDT 10:11 PM CDT
Moon 7:11 AM CDT (7/9) 9:04 PM CDT (7/9)
Length of Visible Light 15h 32m
Length of Day
14h 32m
New Moon, 2% of the Moon is Illuminated
Jul 9
New Moon
Jul 15
First Quarter
Jul 22
Full
Jul 29
Last Quarter
Aug 6
New

Hourly Weather History & Observations

Time (CDT) Temp. Heat Index Dew Point Humidity Pressure Visibility Wind Dir Wind Speed Gust Speed Precip Events Conditions
12:53 AM 79.0 °F - 71.1 °F 77% 30.05 in 10.0 mi Calm Calm - N/A   Clear
1:53 AM 75.9 °F - 71.1 °F 85% 30.05 in 10.0 mi Calm Calm - N/A   Clear
2:53 AM 75.9 °F - 71.1 °F 85% 30.05 in 10.0 mi Calm Calm - N/A   Clear
3:53 AM 75.9 °F - 72.0 °F 87% 30.04 in 10.0 mi Calm Calm - N/A   Clear
4:53 AM 75.0 °F - 71.1 °F 87% 30.06 in 9.0 mi Calm Calm - N/A   Clear
5:53 AM 73.9 °F - 71.1 °F 91% 30.06 in 7.0 mi Calm Calm - N/A   Clear
6:53 AM 75.9 °F - 72.0 °F 87% 30.06 in 9.0 mi Calm Calm - N/A   Clear
7:53 AM 80.1 °F 84.5 °F 73.9 °F 81% 30.07 in 10.0 mi SSW 6.9 mph - N/A   Clear
8:53 AM 82.9 °F 89.4 °F 73.9 °F 74% 30.07 in 10.0 mi SSW 8.1 mph - N/A   Clear
9:53 AM 86.0 °F 95.1 °F 75.0 °F 70% 30.06 in 10.0 mi SW 8.1 mph - N/A   Clear
10:53 AM 89.1 °F 98.0 °F 73.9 °F 61% 30.06 in 10.0 mi SW 6.9 mph - N/A   Clear
11:53 AM 91.0 °F 100.4 °F 73.9 °F 57% 30.05 in 10.0 mi SSW 9.2 mph - N/A   Clear
12:53 PM 93.0 °F 101.9 °F 73.0 °F 52% 30.04 in 10.0 mi SSW 10.4 mph 16.1 mph N/A   Clear
1:53 PM 93.9 °F 103.4 °F 73.0 °F 51% 30.02 in 10.0 mi SSW 10.4 mph - N/A   Clear
2:53 PM 95.0 °F 104.5 °F 73.0 °F 49% 30.01 in 10.0 mi SSW 11.5 mph - N/A   Clear
3:53 PM 95.0 °F 104.5 °F 73.0 °F 49% 29.99 in 10.0 mi SSW 11.5 mph - N/A   Clear
4:53 PM 93.0 °F 100.7 °F 72.0 °F 50% 29.97 in 10.0 mi SSW 12.7 mph - N/A   Clear
5:53 PM 93.0 °F 100.7 °F 72.0 °F 50% 29.95 in 10.0 mi SSW 11.5 mph - N/A   Clear
6:53 PM 91.9 °F 100.7 °F 73.0 °F 54% 29.94 in 10.0 mi SSW 9.2 mph - N/A   Clear
7:53 PM 89.1 °F 98.0 °F 73.9 °F 61% 29.94 in 10.0 mi SSW 5.8 mph - N/A   Clear
8:53 PM 87.1 °F 94.5 °F 73.0 °F 63% 29.95 in 10.0 mi South 6.9 mph - N/A   Clear
9:53 PM 87.1 °F 95.4 °F 73.9 °F 65% 29.96 in 10.0 mi South 6.9 mph - N/A   Clear
10:53 PM 86.0 °F 93.0 °F 73.0 °F 65% 29.97 in 10.0 mi South 9.2 mph - N/A   Clear
11:53 PM 84.9 °F 91.4 °F 73.0 °F 67% 29.97 in 10.0 mi South 8.1 mph - N/A   Clear